User: anonymous   Login
Location: Unspecified
(0.0000°N, 0.0000°E)
Time: 10:44:35
(UTC+02:00)
Language:

OPAL - Orbit

View from above orbital plane
View from above orbital plane
View from above satellite
View from above satellite

Ground track
Ground track

The orbit data is extracted from the following two-line orbital elements,

1 26063U 00004C   14297.51209325  .00000310  00000-0  12489-3 0   948
2 26063 100.2262 107.4559 0037010 152.9720 207.3397 14.36421793772591
Epoch (UTC): 24 October 2014 12:17:24
Eccentricity: 0.0037010
inclination: 100.2262°
perigee height: 744 km
apogee height: 797 km
right ascension of ascending node: 107.4559°
argument of perigee: 152.9720°
revolutions per day: 14.36421793
mean anomaly at epoch: 207.3397°
orbit number at epoch: 77259

The dashed part of the orbit path shows where the satellite is in the earth's shadow,  

DLR